Location: Observatoire
(46.1952°N, 5.3391°E)
Time: 02:36:56
(UTC+01:00)

Altair - Pass Details

Date: 17 February 2026
Orbit: 1502 x 1682 km, 47.2° (Epoch: 10 March)

Event Time Altitude Azimuth Distance (km) Brightness Sun altitude
Rises 04:22:02 0° 208° (SSW) 4,620 - -34.3°
Reaches altitude 10° 04:25:19 10° 200° (SSW) 3,645 - -33.8°
Exits shadow 04:29:51 28° 177° (S) 2,541 8.4 -33.0°
Maximum altitude 04:33:25 37° 137° (SE) 2,201 8.4 -32.5°
Drops below altitude 10° 04:41:41 10° 75° (ENE) 3,731 10.4 -31.1°
Sets 04:45:04 0° 68° (ENE) 4,742 11.2 -30.5°
